Regional Weather Roundup
Issued by NWS

Home | Current Version | Previous Version | Graphics & Text | Print | Product List | Glossary On
Versions: 1 2 3 4 5 6 7 8 9 10 11 12 13 14 15 16 17 18 19 20 21 22 23 24 25 26 27 28 29 30 31 32 33 34 35 36 37 38 39 40 41 42 43 44 45 46 47 48 49 50
000
ASUS43 KIND 190209
RWRIN

WEATHER ROUNDUP FOR INDIANA
NATIONAL WEATHER SERVICE INDIANAPOLIS IN
1000 PM EDT THU SEP 18 2014

NOTE: "FAIR" INDICATES FEW OR NO CLOUDS BELOW 12,000 FEET WITH NO
SIGNIFICANT WEATHER AND/OR OBSTRUCTIONS TO VISIBILITY.

* - STATION DOES NOT REPORT WEATHER SUCH AS PRECIPITATION OR FOG.

+ - STATION NOT QUALITY CONTROLLED BY THE NATIONAL WEATHER SERVICE.
    USE DATA WITH CAUTION...ESPECIALLY DEWPOINT AND RELATIVE
    HUMIDITY OBSERVATIONS.

INZ001>003-010>013-019-020-190300-
NORTHWEST INDIANA

CITY           SKY/WX    TMP DP  RH WIND       PRES   REMARKS
GARY /AIRPORT/ PTCLDY    61  57  88 N6        30.15R
KNOX *+        CLEAR     54  51  88 NE3       30.13R
LA PORTE +     PTCLDY    56  53  89 N7        30.15R
MICHIGAN CITY+   N/A     52  52 100 CALM      30.15S FOG
MONTICELLO +   CLEAR     57  51  80 E3        30.12R
RENSSELAER +   CLEAR     57  54  88 N6        30.13R
VALPARAISO     CLEAR     57  53  86 CALM      30.14R

$$

LMZ046-743>745-190300-
SOUTHERN LAKE MICHIGAN

STATION/POSITION TIME  TEMP WIND        PRES
                       AIR  DIR/SP/G
                 (UTC) (F)  (DEG/KT/KT) (MB)
MICHIGAN CITY    0200   63   30/ 12/ 14   N/A

$$

INZ004-005-014>016-021>024-190300-
NORTH CENTRAL INDIANA

CITY           SKY/WX    TMP DP  RH WIND       PRES   REMARKS
GOSHEN         CLEAR     56  50  80 E6        30.15R
LOGANSPORT +   CLEAR     59  46  63 NE5       30.13S
PERU/GRISSOM   CLEAR     56  55  93 E5        30.13R
ROCHESTER +    CLEAR     55  52  88 NE3       30.14R
SOUTH BEND     CLEAR     59  51  75 CALM      30.16R
WARSAW +       CLEAR     57  52  82 E3        30.14S

$$

INZ006>009-017-018-025>027-190300-
NORTHEAST INDIANA

CITY           SKY/WX    TMP DP  RH WIND       PRES   REMARKS
ANGOLA *+      CLEAR     55  50  82 NE5       30.17R
AUBURN +       PTCLDY    57  50  77 E6        30.16S
FORT WAYNE     PTCLDY    57  49  74 E5        30.15R
HUNTINGTON +   CLEAR     54  51  89 NE3       30.14R

$$

INZ028-029-035-036-043>045-051>053-190300-
WEST CENTRAL INDIANA

CITY           SKY/WX    TMP DP  RH WIND       PRES   REMARKS
GREENCASTLE +  CLEAR     59  50  72 NE3       30.11R
LAFAYETTE      CLEAR     59  49  69 NE7       30.11R
TERRE HAUTE    CLEAR     55  51  86 CALM      30.09R

$$

INZ030>032-037>040-046>048-054>057-064-065-190300-
CENTRAL INDIANA

CITY           SKY/WX    TMP DP  RH WIND       PRES   REMARKS
CP ATTERBURY + CLEAR     54  50  87 CALM      30.11R
FRANKFORT +    CLEAR     55  50  83 E5        30.13R
INDIANAPOLIS   CLEAR     63  48  58 NE7       30.10R
-EAGLE CREEK   CLEAR     62  48  60 CALM      30.11R
KOKOMO *+      CLEAR     54  48  82 E3        30.13R
MARION +       CLEAR     52  48  87 E3        30.14R
MT COMFORT *+  CLEAR     54  46  76 NE6       30.12R
SHELBYVILLE    CLEAR     58  50  75 NE6       30.11R
ZIONSVILLE +   CLEAR     58  48  69 NE5       30.12R

$$

INZ033-034-041-042-049-050-058-059-190300-
EAST CENTRAL INDIANA

CITY           SKY/WX    TMP DP  RH WIND       PRES   REMARKS
MUNCIE         CLEAR     54  48  80 E3        30.13R

$$

INZ060-061-067>069-081>083-085>088-190300-
SOUTHWEST INDIANA

CITY           SKY/WX    TMP DP  RH WIND       PRES   REMARKS
EVANSVILLE     CLEAR     62  54  74 CALM      30.07R
WASHINGTON +   CLEAR     52  52  98 CALM      30.08R

$$

INZ062-063-066-070>080-084-089>092-190300-
SOUTH CENTRAL AND SOUTHEAST INDIANA

CITY           SKY/WX    TMP DP  RH WIND       PRES   REMARKS
BEDFORD +      CLEAR     59  48  67 NE5       30.09
BLOOMINGTON    CLEAR     52  49  89 CALM      30.10R

$$




USA.gov is the U.S. government's official web portal to all federal, state and local government web resources and services.